Theta_e
317 314 316 317 317 317 316 313 305 306 308 307 314 318 320 310 313 323 320 319 317 318 319 319 319 319 319 321 323 325 325 324 324 324 323 322 323 322 321 322 323 323 324 324 323
318 317 315 315 316 319 316 314 313 305 308 307 315 319 317 314 318 319 317 319 319 319 320 320 319 319 319 321 322 324 325 323 323 323 323 322 323 323 323 323 324 324 324 323 323
314 316 316 314 315 319 317 315 314 305 308 307 314 318 320 322 321 322 322 322 321 320 322 320 320 319 319 321 321 322 325 323 324 323 323 323 323 323 323 324 324 325 325 324 324
308 313 314 313 315 316 318 316 314 305 308 309 311 317 320 322 323 319 320 320 321 322 322 321 320 319 320 321 321 322 321 322 322 323 325 325 324 325 323 323 323 324 323 324 325
305 308 312 315 314 315 318 315 314 305 307 310 309 314 318 319 320 317 316 318 320 323 323 322 320 319 321 319 320 322 321 321 321 322 322 322 323 324 323 323 324 325 325 326 326
304 305 309 312 314 314 316 316 314 306 307 311 310 310 314 319 318 320 316 315 318 323 323 322 322 320 319 319 319 319 320 320 320 320 320 321 321 321 321 321 322 322 323 324 325
302 303 305 309 313 314 315 317 314 307 307 313 311 311 313 314 312 315 318 318 319 323 323 322 320 319 320 320 319 319 320 319 319 318 319 320 322 321 320 320 320 321 321 321 322
301 303 303 307 310 313 315 317 314 307 308 311 310 310 313 312 311 310 313 317 319 318 321 320 320 319 317 318 317 319 319 321 319 319 318 318 320 319 321 321 321 321 320 320 320
301 301 301 303 307 312 315 316 312 307 311 313 312 310 312 310 311 311 312 315 317 315 316 318 316 315 316 316 317 317 318 319 319 318 319 320 322 320 319 321 321 320 321 321 321
301 300 301 301 304 310 314 316 311 311 312 315 312 312 311 311 311 311 310 314 314 314 314 314 315 316 315 317 319 318 318 317 317 317 318 319 319 319 319 318 318 319 321 321 321
299 300 300 302 302 306 311 314 313 312 311 311 311 311 311 310 311 310 311 311 313 315 316 314 316 316 315 315 315 315 317 317 317 317 317 317 317 317 316 316 316 317 317 318 320
299 300 301 301 302 303 306 311 310 311 311 310 310 310 310 311 311 311 311 312 312 314 313 314 315 314 313 313 314 315 316 316 315 314 314 315 316 315 314 314 314 315 316 316 317
299 299 301 300 302 302 304 308 311 309 310 310 310 310 310 310 312 311 311 311 313 314 314 315 313 311 313 313 314 315 316 315 315 314 313 314 315 315 314 313 312 312 312 313 314
300 300 300 301 301 304 305 308 311 311 311 309 310 310 309 311 312 311 311 311 312 313 313 314 312 311 312 313 313 315 312 312 313 313 315 312 317 314 314 314 313 313 313 313 313
301 300 300 300 303 302 308 309 310 308 315 308 308 309 310 309 310 311 311 311 312 312 312 313 311 312 312 312 312 313 311 311 312 313 313 314 314 313 313 314 314 314 313 314 313
299 300 301 301 302 301 305 310 309 308 313 310 309 311 311 310 311 310 311 311 310 311 311 311 309 310 311 311 311 311 311 311 311 312 315 313 313 313 313 314 313 313 313 313 314
300 300 302 301 303 302 305 305 308 315 308 311 311 310 309 310 312 312 312 312 313 313 313 311 312 310 309 310 310 311 312 314 314 314 314 311 312 313 312 312 313 313 313 313 313
301 304 303 303 302 304 304 305 313 310 311 310 311 310 312 310 313 312 312 313 311 311 312 313 315 312 310 310 311 311 312 314 313 312 312 311 313 312 312 312 312 312 312 315 316
302 303 304 303 303 303 303 312 313 309 310 310 312 312 312 310 312 312 312 311 311 311 313 312 311 309 310 310 311 311 312 311 313 312 314 312 312 312 312 311 312 312 315 315 315
302 304 304 303 305 304 305 313 308 310 310 310 312 311 311 311 312 311 312 312 312 312 311 311 313 309 310 310 310 312 311 313 313 313 313 311 312 312 311 311 312 315 314 313 314
302 304 305 304 303 303 310 309 311 309 310 311 311 312 311 312 311 312 312 310 311 312 311 311 310 311 309 311 311 311 311 312 312 313 312 312 311 311 310 311 310 313 312 312 314
302 304 304 304 304 304 310 307 310 310 312 312 311 311 311 311 312 312 312 310 308 311 312 311 311 312 311 310 310 310 311 310 313 313 314 313 313 310 310 311 315 312 312 313 314
301 304 305 305 310 310 307 310 312 312 313 313 313 312 310 311 312 311 310 309 308 311 312 311 312 312 314 312 310 310 311 311 311 312 313 314 312 309 309 310 310 312 311 312 314
302 307 304 305 308 308 310 311 313 312 313 312 312 312 312 312 311 311 311 310 308 309 309 310 312 313 315 316 314 315 312 311 312 314 313 313 312 311 310 310 310 309 310 310 312
305 307 306 309 309 309 310 311 313 313 312 313 312 312 313 313 312 312 311 310 309 309 310 311 313 312 311 311 312 313 313 313 312 312 313 313 312 311 311 310 310 310 310 312 313
304 306 307 308 308 309 310 310 311 313 313 313 314 313 313 313 313 314 313 312 313 311 311 311 313 313 313 312 313 314 314 314 314 313 313 312 313 312 311 311 311 312 311 312 314
303 305 307 309 309 310 311 310 311 312 312 312 312 313 313 313 312 313 312 312 312 312 312 312 313 313 315 314 316 318 316 316 315 313 313 314 313 311 310 310 309 311 311 313 312
Wind_Speed
16 18 18 18 20 15 17 15 16 13 11 9 6 5 6 8 15 17 17 12 14 14 5 7 5 5 6 7 7 6 8 13 19 16 12 6 10 10 5 9 5 6 4 1 3
13 19 19 18 19 19 16 16 15 13 10 9 7 6 8 12 14 16 12 8 10 11 15 7 7 6 7 8 8 13 11 16 11 14 9 11 9 7 7 12 12 9 6 3 6
14 17 19 19 18 20 17 17 15 14 11 9 9 9 9 11 9 10 12 13 12 12 9 9 7 7 9 7 10 10 15 13 8 12 11 14 14 12 13 14 17 14 8 5 2
19 16 18 18 18 19 20 17 15 13 11 9 11 11 10 12 5 6 8 11 17 14 11 10 8 8 6 8 9 9 14 15 10 11 10 13 13 15 19 24 15 13 11 10 11
24 18 16 18 20 19 20 15 14 11 12 9 10 12 11 9 6 4 2 5 13 20 16 12 10 8 8 5 7 12 11 11 12 12 16 18 24 23 24 22 21 20 17 17 17
27 22 17 18 21 20 21 16 13 11 12 9 9 10 10 11 9 14 4 2 7 18 17 14 8 7 4 5 8 2 6 11 11 17 19 20 25 22 27 24 27 30 31 27 23
28 24 22 18 16 21 19 22 14 11 13 10 7 8 9 10 10 13 14 12 7 11 14 16 10 7 7 4 4 6 10 12 17 15 13 12 20 20 32 31 32 27 27 29 29
27 24 22 20 19 18 19 25 16 14 14 11 8 7 6 8 17 9 12 11 10 9 11 14 12 5 3 1 3 5 5 5 2 2 8 11 17 5 5 10 22 29 31 32 31
25 25 24 22 20 12 18 27 20 16 15 11 7 6 4 7 11 12 14 12 13 12 11 11 9 4 4 5 5 8 7 9 9 4 6 12 11 4 11 11 15 20 21 22 28
27 25 24 19 23 17 6 22 19 20 15 12 6 4 8 3 7 12 21 17 12 13 9 6 4 5 7 8 5 5 7 7 10 3 6 15 21 20 24 26 25 26 26 23 22
25 23 24 19 18 26 12 26 21 8 17 9 11 3 7 8 9 11 20 15 12 13 10 8 6 11 14 14 9 2 6 10 9 7 15 17 23 21 25 29 28 30 31 31 31
23 24 22 20 17 20 25 14 33 11 9 14 10 8 10 11 5 11 20 12 13 12 10 5 12 13 6 10 12 14 16 16 14 13 11 18 31 23 24 32 34 33 34 35 34
24 26 21 18 22 26 24 16 33 16 4 11 17 10 8 11 5 16 20 10 12 11 16 8 3 1 12 12 12 15 17 14 16 15 18 21 26 16 8 15 23 31 38 39 38
26 19 22 20 20 11 20 20 26 10 3 8 10 8 15 8 4 12 20 8 4 12 10 9 10 6 7 9 12 14 8 13 13 10 6 2 11 15 14 14 14 17 19 23 28
28 26 25 19 17 15 7 18 23 13 7 10 7 9 16 15 14 8 15 3 7 9 6 3 6 9 12 11 12 7 4 7 9 11 11 18 6 13 4 15 11 14 19 22 22
29 35 28 22 16 19 13 27 23 4 6 7 8 10 15 11 7 9 13 3 5 5 6 7 2 5 6 8 13 3 7 9 11 8 8 21 14 19 19 15 11 12 16 18 17
38 45 32 17 15 14 10 19 5 6 7 9 9 13 15 11 9 11 13 9 6 5 7 5 16 6 8 9 8 11 5 3 4 6 9 6 10 20 13 10 17 22 25 19 16
43 25 6 17 20 12 13 3 4 5 6 5 13 16 8 17 6 11 13 10 10 4 3 4 4 15 11 16 4 18 14 5 7 10 12 5 11 12 20 19 22 17 17 11 13
37 9 8 15 21 14 13 4 2 6 11 13 14 9 6 12 6 7 10 8 11 14 6 5 5 3 7 8 12 5 9 13 18 20 13 16 23 18 23 15 19 15 9 9 14
32 2 8 13 18 17 3 3 1 3 17 16 7 7 9 13 8 10 11 6 8 16 15 2 4 7 3 8 12 14 0 5 6 6 18 13 15 13 13 9 15 12 9 12 16
22 2 12 14 19 10 1 2 4 13 12 3 7 8 8 12 8 12 6 3 8 11 17 7 5 3 3 12 13 10 8 6 6 9 8 14 16 11 9 12 13 7 12 17 15
5 1 18 21 4 2 1 1 6 6 1 4 8 10 13 13 11 9 9 5 9 12 10 12 5 8 14 14 14 16 16 19 9 12 7 10 21 12 13 10 8 13 16 14 14
1 3 7 15 3 4 2 1 3 2 3 3 4 3 6 9 6 8 5 3 12 12 12 11 5 4 5 3 8 10 19 22 18 10 20 10 15 3 5 5 5 11 14 15 17
3 3 4 2 2 8 8 3 5 5 3 7 6 6 7 6 2 7 7 4 13 15 6 12 6 8 10 13 8 8 12 19 18 11 18 21 29 24 19 20 19 27 25 20 15
5 4 4 3 3 9 3 3 8 3 3 4 4 3 5 4 5 4 6 3 4 10 9 7 6 11 20 23 22 23 26 20 22 28 17 28 20 23 15 15 16 17 17 19 12
6 5 6 4 9 10 2 3 3 4 3 3 3 8 7 3 5 3 5 6 5 10 12 6 7 4 16 20 23 23 23 21 18 24 26 28 27 25 22 14 16 20 20 19 21
18 6 1 6 6 7 6 7 6 6 3 5 6 5 6 5 8 10 12 7 5 6 13 5 2 2 8 14 22 9 7 11 7 12 20 20 24 12 8 10 14 20 25 20 16
Wind_Direction
305 284 279 279 276 287 305 309 295 280 279 269 249 249 243 210 190 210 231 240 234 225 188 181 191 207 198 200 195 198 228 234 229 237 231 216 216 217 213 236 222 208 243 270 264
325 308 277 285 276 267 286 298 301 281 272 256 229 221 189 182 192 225 245 238 227 210 211 184 191 192 202 203 196 212 228 240 246 251 241 229 236 253 234 216 224 224 232 285 284
322 332 294 275 275 262 272 291 301 275 259 242 218 208 195 185 206 240 235 227 215 204 184 184 182 188 207 201 199 213 238 233 236 249 250 249 247 237 242 242 233 232 234 261 294
311 322 310 271 271 263 258 275 292 267 249 235 220 202 203 194 209 197 227 219 216 197 178 165 177 184 208 206 208 237 241 257 255 237 253 247 259 248 244 246 257 254 257 270 271
330 320 303 300 266 265 248 260 280 262 242 229 220 211 192 213 218 185 206 208 202 197 191 178 185 195 217 208 217 235 254 252 253 254 257 265 255 258 264 255 254 256 257 262 265
328 320 305 320 272 260 244 245 270 249 232 220 215 207 201 220 232 227 215 224 200 198 189 184 195 208 218 219 230 266 265 266 267 261 262 260 261 256 255 260 257 255 254 253 253
325 317 296 305 290 260 242 230 245 232 218 208 208 206 214 221 238 225 227 238 183 184 189 193 188 180 177 195 226 272 281 276 262 255 259 262 263 246 255 251 252 253 250 248 244
321 314 306 286 305 255 238 229 223 211 204 203 203 211 237 235 235 201 188 185 189 203 197 198 185 169 198 182 225 253 265 281 86 273 237 220 267 285 266 231 252 254 252 250 247
311 310 306 290 299 276 233 228 200 192 187 191 197 197 246 233 226 206 188 168 155 141 144 149 151 172 159 232 248 216 256 234 281 249 280 216 273 288 246 282 273 262 261 259 251
311 299 308 292 278 265 209 213 182 177 174 163 167 218 229 203 197 191 183 177 160 149 132 156 170 209 217 201 236 230 226 234 251 176 273 271 267 269 267 275 274 271 264 257 254
307 305 307 302 273 257 257 183 153 156 177 191 185 165 139 154 148 168 171 157 161 190 202 191 205 215 221 222 238 290 265 259 256 272 302 272 273 272 274 272 267 262 261 258 255
317 314 306 303 282 276 255 212 166 183 184 196 153 167 151 157 133 160 162 161 170 192 172 179 233 237 239 235 239 249 261 265 280 274 273 287 286 285 274 265 260 258 255 254 254
318 317 309 303 295 283 265 273 187 153 112 176 199 185 188 177 175 178 174 168 183 173 194 203 111 208 211 222 232 242 253 269 276 295 287 282 283 275 268 268 262 256 256 257 253
313 317 319 311 300 299 278 255 190 165 136 164 187 210 190 161 214 177 175 166 166 197 189 237 237 204 186 226 230 263 262 257 259 276 276 56 291 298 291 287 265 265 254 253 255
311 301 301 299 279 273 251 223 182 143 182 137 150 154 168 173 136 170 181 171 174 159 167 152 177 193 221 235 216 237 215 243 254 258 280 251 248 279 264 284 267 271 261 273 269
308 301 290 290 267 247 246 183 153 102 206 155 135 158 155 187 149 133 173 173 173 176 229 252 191 211 223 219 207 112 228 256 261 263 248 250 221 276 275 284 285 277 262 290 284
311 313 287 236 237 225 202 142 118 206 166 150 159 154 158 167 143 154 173 175 169 165 207 236 230 206 195 229 214 220 204 253 233 209 244 288 220 237 278 280 271 279 290 294 299
335 339 226 204 205 196 164 154 161 123 129 159 144 151 165 153 158 164 166 190 213 191 139 230 216 195 196 216 210 209 209 223 252 259 283 266 238 235 247 259 260 267 283 302 320
341 5 121 164 173 175 160 188 115 163 139 139 134 151 126 173 167 151 181 198 198 197 201 182 257 201 215 204 209 185 219 242 270 267 268 255 263 269 260 248 254 266 282 318 345
340 359 129 155 171 150 118 67 309 140 134 141 128 186 162 164 162 177 182 204 209 197 207 183 263 214 182 210 241 225 313 209 207 260 253 247 245 257 273 267 252 220 276 320 332
357 32 135 152 155 99 227 118 112 143 123 142 134 139 155 164 174 180 178 179 209 193 193 183 213 145 167 207 212 199 227 211 273 254 266 276 270 292 276 271 255 243 295 308 319
328 115 143 149 93 156 172 157 129 145 93 101 100 102 149 163 172 190 206 244 183 154 188 204 219 243 242 240 228 236 238 224 232 235 221 262 271 265 266 266 235 279 299 313 316
77 86 154 168 139 117 171 91 90 151 61 96 103 106 161 160 155 193 197 229 177 186 181 172 213 285 252 199 228 242 242 235 236 260 247 257 262 59 246 247 256 267 308 317 312
107 108 73 89 97 119 144 75 105 46 76 73 104 101 124 150 143 178 215 216 196 205 185 176 226 227 256 282 309 251 254 236 220 237 256 237 262 268 273 277 281 287 298 304 305
10 75 135 142 143 143 85 89 126 113 65 92 110 145 148 140 164 217 203 192 187 204 190 211 248 244 257 275 279 269 266 256 225 232 238 260 260 269 283 287 290 299 297 302 313
42 5 16 64 146 167 95 157 127 98 127 150 141 155 176 159 202 195 196 208 219 190 198 218 273 285 279 271 264 271 266 258 241 240 248 258 268 271 281 320 320 304 297 310 301
5 30 318 133 166 173 169 172 169 136 64 99 170 132 217 234 263 265 236 233 229 201 204 202 221 285 273 316 309 274 263 257 241 236 236 247 251 285 299 291 292 296 287 286 296